Weather History for Manston, United Kingdom

Change the Weather History Date:

Saturday, June 15, 2013

  Actual Average Record
Temperature  
Mean Temperature 58 °F -  
Max Temperature 64 °F - - ()
Min Temperature 53 °F - - ()
Degree Days  
Heating Degree Days 6    
Growing Degree Days 8 (Base 50)    
Moisture  
Dew Point 47 °F    
Average Humidity 67    
Maximum Humidity 94    
Minimum Humidity 45    
Precipitation  
Precipitation 0.00 in - - ()
Sea Level Pressure  
Sea Level Pressure 29.81 in    
Wind  
Wind Speed 17 mph ()    
Max Wind Speed 29 mph    
Max Gust Speed 41 mph    
Visibility 7.7 miles    
Events Rain    
T = Trace of Precipitation, MM = Missing Value Source: Averaged Metar Reports

Daily Weather History Graph

Daily Weather History Graph

Search for Another Location

Airport:

Trip Planner

Search our weather history database for the weather conditions in past years. The results will help you decide how hot, cold, wet, or windy it might be!

Date:

Astronomy

Jun. 15, 2013 Rise Set
Actual Time 4:37 AM BST 9:12 PM BST
Civil Twilight 3:50 AM BST 10:00 PM BST
Nautical Twilight 2:37 AM BST 11:12 PM BST
Astronomical Twilight 1:27 AM BST 12:22 AM BST
Moon 11:38 AM BST (6/15) 12:02 AM BST (6/15)
Length of Visible Light 18h 09m
Length of Day
16h 35m
Waxing Crescent, 37% of the Moon is Illuminated
Jun 15
Waxing Crescent
Jun 16
First Quarter
Jun 23
Full
Jun 30
Last Quarter
Jul 8
New

Hourly Weather History & Observations

Time (BST) Temp. Dew Point Humidity Pressure Visibility Wind Dir Wind Speed Gust Speed Precip Events Conditions
12:50 AM 57 °F 52 °F 76% 29.83 in 18 mi SSE 11.5 mph - -   Mostly Cloudy
3:50 AM 54 °F 50 °F 81% 29.76 in 18 mi South 11.5 mph - -   Partly Cloudy
5:20 AM 53.6 °F 51.8 °F 94% 29.74 in 3.7 mi SSW 17.3 mph - N/A Rain Light Rain
5:50 AM 53.6 °F 51.8 °F 94% 29.74 in 6.2 mi SW 13.8 mph - N/A   Scattered Clouds
6:20 AM 53.6 °F 50.0 °F 88% 29.74 in 6.2 mi SW 13.8 mph - N/A   Scattered Clouds
6:50 AM 54 °F 50 °F 83% 29.76 in 19 mi WSW 18.4 mph - - Rain Rain
6:50 AM 53.6 °F 50.0 °F 88% 29.74 in 6.2 mi SW 15.0 mph - N/A   Partly Cloudy
7:20 AM 55.4 °F 48.2 °F 77% 29.77 in 6.2 mi WSW 16.1 mph - N/A   Partly Cloudy
7:50 AM 55.4 °F 48.2 °F 77% 29.77 in 6.2 mi WSW 16.1 mph - N/A   Partly Cloudy
8:20 AM 57.2 °F 48.2 °F 72% 29.77 in 6.2 mi WSW 18.4 mph - N/A   Partly Cloudy
8:50 AM 59.0 °F 48.2 °F 67% 29.77 in 6.2 mi WSW 18.4 mph - N/A   Partly Cloudy
9:20 AM 59.0 °F 44.6 °F 59% 29.77 in 6.2 mi WSW 20.7 mph - N/A   Scattered Clouds
9:50 AM 61 °F 46 °F 47% 29.80 in 13 mi SW 23.0 mph - -   Scattered Clouds
9:50 AM 60.8 °F 44.6 °F 55% 29.77 in 6.2 mi SW 20.7 mph 35.7 mph N/A   Scattered Clouds
10:20 AM 59.0 °F 44.6 °F 59% 29.77 in 6.2 mi SW 20.7 mph - N/A   Scattered Clouds
10:50 AM 60.8 °F 44.6 °F 55% 29.80 in 6.2 mi SW 19.6 mph - N/A   Scattered Clouds
11:20 AM 59.0 °F 44.6 °F 59% 29.80 in 6.2 mi SW 21.9 mph 33.4 mph N/A   Scattered Clouds
11:50 AM 62.6 °F 44.6 °F 52% 29.80 in 6.2 mi SW 20.7 mph 33.4 mph N/A   Scattered Clouds
12:20 PM 62.6 °F 46.4 °F 55% 29.80 in 6.2 mi SW 23.0 mph - N/A   Scattered Clouds
12:50 PM 62 °F 46 °F 45% 29.83 in 11 mi SW 25.3 mph - -   Scattered Clouds
12:50 PM 64.4 °F 46.4 °F 52% 29.80 in 6.2 mi SW 24.2 mph - N/A   Scattered Clouds
1:20 PM 62.6 °F 46.4 °F 55% 29.80 in 6.2 mi SW 24.2 mph - N/A   Scattered Clouds
1:50 PM 62.6 °F 46.4 °F 55% 29.80 in 6.2 mi SSW 26.5 mph - N/A   Scattered Clouds
2:20 PM 62.6 °F 46.4 °F 55% 29.83 in 6.2 mi SW 24.2 mph - N/A   Scattered Clouds
2:50 PM 62.6 °F 46.4 °F 55% 29.83 in 6.2 mi SW 23.0 mph - N/A   Scattered Clouds
3:20 PM 60.8 °F 46.4 °F 59% 29.83 in 6.2 mi SW 26.5 mph - N/A   Scattered Clouds
3:50 PM 60 °F 46 °F 48% 29.83 in 17 mi SW 26.5 mph - -   Partly Cloudy
3:50 PM 60.8 °F 46.4 °F 59% 29.80 in 6.2 mi SW 25.3 mph - N/A   Scattered Clouds
4:20 PM 62.6 °F 46.4 °F 55% 29.80 in 6.2 mi SW 28.8 mph - N/A   Scattered Clouds
4:50 PM 60.8 °F 46.4 °F 59% 29.83 in 6.2 mi SW 28.8 mph 41.4 mph N/A   Mostly Cloudy
5:50 PM 60.8 °F 48.2 °F 63% 29.80 in 6.2 mi SW 28.8 mph - N/A   Partly Cloudy
6:20 PM 60.8 °F 46.4 °F 59% 29.83 in 6.2 mi SW 27.6 mph 39.1 mph N/A   Partly Cloudy
6:50 PM 59.0 °F 46.4 °F 63% 29.83 in 6.2 mi SW 21.9 mph - N/A   Partly Cloudy
7:20 PM 59.0 °F 46.4 °F 63% 29.83 in 6.2 mi SW 20.7 mph - N/A   Partly Cloudy
7:50 PM 57.2 °F 48.2 °F 72% 29.83 in 6.2 mi SW 19.6 mph - N/A   Partly Cloudy
8:20 PM 57.2 °F 48.2 °F 72% 29.86 in 6.2 mi SW 16.1 mph - N/A   Partly Cloudy
8:50 PM 55.4 °F 48.2 °F 77% 29.86 in 6.2 mi SW 16.1 mph - N/A   Partly Cloudy
9:20 PM 53.6 °F 48.2 °F 82% 29.86 in - SW 12.7 mph - N/A   Clear
9:50 PM 53 °F 49 °F 80% 29.89 in 8 mi SW 12.7 mph - -  
9:50 PM 53.6 °F 48.2 °F 82% 29.89 in - SSW 12.7 mph - N/A   Clear
10:20 PM 53.6 °F 48.2 °F 82% 29.89 in - SW 12.7 mph - N/A   Clear